DELTA 1 DEB, 14472

Orbit data source: Space-Track

DELTA 1 DEB, 14472 is space debris in SSO originally from a launch on Thu, 29 Jul 1976 UTC launched from the Air Force Western Test Range (AFWTR). Debris objects in space refer to the collection of defunct objects orbiting the Earth. Examples of debris include non-operational satellites, rocket bodies, and fragments generated from explosions, collisions, or faulty payload assembly.

Loading next visibility...
Identifier
14472, 1976-077EP
Orbit
SSO
Country
Flag of USUS
Related business
Manufacturer
Unknown
Mission
Spacecraft
Bus & Motor
Unknown
Mass
Unknown
Launch date (UTC)
1976-07-29 (49 years ago)
Launch vehicle
Unknown
Launch site
Air Force Western Test Range (AFWTR)
Object type
Payload
Rocket body
Debris
Shape & HBR
Unknown shape, 0.1 m
Radar Cross Section
Small (<0.1 m²)

Expand to show TLE details & history
Last TLE update: 2 days ago

TLE from 2 days ago
0 DELTA 1 DEB
1 14472U 76077EP  25346.71639454 -.00000006  00000-0  38687-3 0  9996
2 14472 102.8130 327.3727 0155174 192.8626 353.8873 12.16359974910614
Epoch: 2025-12-12T17:11Z
TLE epoch observation values (Epoch: 2025-12-12T17:11:36.488Z)
Latitude
-6.53127°
Longitude
166.33191°
Altitude
1,488.784 km
Speed
7.174 km/s
True Right ascension
09h 43m 33s
True Declination
-6° 29' 46"
Sunlit
Object was in daylight at epoch
Visualization orbit readout
Latitude
Unknown
Longitude
Unknown
Altitude
Unknown
Speed
Unknown
Apparent Right ascension
Unknown
Apparent Declination
Unknown
Sunlit
N/A
Visualization observer readout
Local Sidereal Time
05:58:41
Azimuth
Unknown
Elevation
Unknown
Doppler factor
Unknown
Orbital elements
Apogee altitude
1,729.984 km
Perigee altitude
1,482.195 km
Semi-major axis
7,984.226 km
Eccentricity
0.01552
Inclination
102.813°
RAAN
327.3727°
Arg. of periapsis
192.8626°
True anomaly
353.69423°
Mean anomaly
353.8873°
Eccentric anomaly
353.79114°
Mean motion
3.04224 °/min
Orbital period
118.33 mins
BSTAR
0.00038687
Loading maneuver chart data...
Computing Atmospheric mass density...
Loading historical data...
Loading historical data...
Loading historical data...
Loading historical data...
Loading historical data...
Loading historical data...
Loading historical data...

Documentation

Showing up to 5 results
|